When you browse on this site, cookies collect data to enhance your experience and personalize the content and advertising you see.
Visit our Privacy Policy to learn more. By continuing to use the site, you agree to this use of cookies and data.

Meteo pe oră la Kobe

Astăzi, 2 Iulie, Joi

Timp Temperatura Precipitaţii Vânt Presiune Umiditate
00:00 +25°C° 0 mm 5 m/s 750 mmHg 72%
01:00 +23°C° 0 mm 5 m/s 750 mmHg 72%
02:00 +23°C° 0 mm 5 m/s 750 mmHg 72%
03:00 +23°C° 0 mm 5 m/s 750 mmHg 72%
04:00 +23°C° 0 mm 5 m/s 751 mmHg 73%
05:00 +22°C° 0 mm 5 m/s 751 mmHg 74%
06:00 +22°C° 0 mm 5 m/s 751 mmHg 75%
07:00 +23°C° 0 mm 5 m/s 752 mmHg 72%
08:00 +25°C° 0 mm 5 m/s 752 mmHg 68%
09:00 +26°C° 0 mm 5 m/s 753 mmHg 64%
10:00 +27°C° 0 mm 4 m/s 753 mmHg 60%
11:00 +28°C° 0 mm 3 m/s 753 mmHg 57%
12:00 +29°C° 0 mm 2 m/s 753 mmHg 54%
13:00 +29°C° 0 mm 2 m/s 752 mmHg 52%
14:00 +29°C° 0 mm 2 m/s 752 mmHg 50%
15:00 +30°C° 0 mm 2 m/s 752 mmHg 48%
16:00 +29°C° 0 mm 2 m/s 752 mmHg 51%
17:00 +28°C° 0 mm 2 m/s 753 mmHg 54%
18:00 +28°C° 0 mm 1 m/s 753 mmHg 58%
19:00 +27°C° 0 mm 2 m/s 753 mmHg 60%
20:00 +26°C° 0 mm 2 m/s 754 mmHg 63%
21:00 +25°C° 0 mm 2 m/s 754 mmHg 65%
22:00 +25°C° 0 mm 2 m/s 754 mmHg 67%
23:00 +25°C° 0 mm 2 m/s 754 mmHg 69%

Mâine, 3 Iulie, Vineri

Timp Temperatura Precipitaţii Vânt Presiune Umiditate
00:00 +24°C° 0 mm 2 m/s 754 mmHg 70%
01:00 +24°C° 0 mm 2 m/s 754 mmHg 71%
02:00 +24°C° 0 mm 2 m/s 754 mmHg 72%
03:00 +24°C° 0 mm 2 m/s 754 mmHg 72%
04:00 +24°C° 0 mm 2 m/s 754 mmHg 73%
05:00 +24°C° 0 mm 2 m/s 754 mmHg 73%
06:00 +24°C° 0 mm 2 m/s 755 mmHg 73%
07:00 +25°C° 0 mm 2 m/s 755 mmHg 71%
08:00 +25°C° 0 mm 1 m/s 755 mmHg 68%
09:00 +26°C° 0 mm 1 m/s 755 mmHg 66%
10:00 +26°C° 0 mm 2 m/s 754 mmHg 68%
11:00 +26°C° 0 mm 2 m/s 754 mmHg 70%
12:00 +26°C° 0 mm 3 m/s 754 mmHg 72%
13:00 +25°C° 0.8 mm 2 m/s 754 mmHg 77%
14:00 +24°C° 0.8 mm 2 m/s 754 mmHg 81%
15:00 +24°C° 0.8 mm 1 m/s 753 mmHg 86%
16:00 +23°C° 2.9 mm 2 m/s 753 mmHg 87%
17:00 +22°C° 2.9 mm 3 m/s 752 mmHg 89%
18:00 +22°C° 2.9 mm 4 m/s 752 mmHg 91%
19:00 +22°C° 4 mm 4 m/s 752 mmHg 92%
20:00 +22°C° 4 mm 5 m/s 752 mmHg 93%
21:00 +22°C° 4 mm 6 m/s 752 mmHg 93%
22:00 +23°C° 2.8 mm 6 m/s 751 mmHg 93%
23:00 +23°C° 2.8 mm 6 m/s 751 mmHg 93%

Poimâine, 4 Iulie, Sâmbătă

Timp Temperatura Precipitaţii Vânt Presiune Umiditate
00:00 +24°C° 2.8 mm 6 m/s 750 mmHg 92%
01:00 +24°C° 2.4 mm 7 m/s 750 mmHg 93%
02:00 +24°C° 2.4 mm 8 m/s 749 mmHg 94%
03:00 +24°C° 2.4 mm 8 m/s 749 mmHg 95%
04:00 +24°C° 2 mm 6 m/s 749 mmHg 95%
05:00 +23°C° 2 mm 4 m/s 749 mmHg 95%
06:00 +24°C° 2 mm 2 m/s 749 mmHg 95%
07:00 +24°C° 0.5 mm 2 m/s 749 mmHg 93%
08:00 +25°C° 0.5 mm 2 m/s 750 mmHg 90%
09:00 +25°C° 0.5 mm 2 m/s 750 mmHg 88%
10:00 +25°C° 0.1 mm 2 m/s 750 mmHg 86%
11:00 +25°C° 0.1 mm 2 m/s 750 mmHg 85%
12:00 +26°C° 0.1 mm 2 m/s 750 mmHg 83%
13:00 +26°C° 0 mm 2 m/s 749 mmHg 81%
14:00 +26°C° 0 mm 2 m/s 749 mmHg 79%
15:00 +27°C° 0 mm 3 m/s 749 mmHg 77%
16:00 +26°C° 0 mm 3 m/s 749 mmHg 77%
17:00 +26°C° 0 mm 2 m/s 749 mmHg 78%
18:00 +26°C° 0 mm 2 m/s 749 mmHg 78%
19:00 +26°C° 0 mm 2 m/s 750 mmHg 79%
20:00 +26°C° 0 mm 1 m/s 750 mmHg 80%
21:00 +25°C° 0 mm 1 m/s 750 mmHg 80%
22:00 +25°C° 0 mm 1 m/s 750 mmHg 81%
23:00 +25°C° 0 mm 1 m/s 750 mmHg 82%

5 Iulie, Duminică

Timp Temperatura Precipitaţii Vânt Presiune Umiditate
00:00 +25°C° 0 mm 1 m/s 750 mmHg 82%
01:00 +24°C° 0 mm 1 m/s 750 mmHg 82%
02:00 +24°C° 0 mm 1 m/s 750 mmHg 83%
03:00 +24°C° 0 mm 1 m/s 750 mmHg 83%
04:00 +22°C° 0 mm 0 m/s 750 mmHg 83%
05:00 +23°C° 0 mm 0 m/s 750 mmHg 82%
06:00 +23°C° 0 mm 0 m/s 750 mmHg 82%
07:00 +25°C° 0.4 mm 1 m/s 750 mmHg 83%
08:00 +25°C° 0.4 mm 1 m/s 750 mmHg 84%
09:00 +25°C° 0.4 mm 2 m/s 750 mmHg 85%
10:00 +25°C° 5.9 mm 3 m/s 749 mmHg 88%
11:00 +25°C° 5.9 mm 4 m/s 749 mmHg 91%
12:00 +23°C° 5.9 mm 6 m/s 749 mmHg 94%
13:00 +25°C° 0.8 mm 5 m/s 749 mmHg 93%
14:00 +25°C° 0.8 mm 5 m/s 749 mmHg 91%
15:00 +25°C° 0.8 mm 5 m/s 749 mmHg 90%
16:00 +25°C° 0.3 mm 4 m/s 749 mmHg 91%
17:00 +25°C° 0.3 mm 3 m/s 749 mmHg 93%
18:00 +25°C° 0.3 mm 3 m/s 749 mmHg 94%
19:00 +25°C° 0.4 mm 4 m/s 749 mmHg 93%
20:00 +25°C° 0.4 mm 5 m/s 749 mmHg 91%
21:00 +24°C° 0.4 mm 7 m/s 750 mmHg 90%
22:00 +24°C° 0.1 mm 8 m/s 750 mmHg 89%
23:00 +24°C° 0.1 mm 8 m/s 750 mmHg 87%

6 Iulie, Luni

Timp Temperatura Precipitaţii Vânt Presiune Umiditate
00:00 +24°C° 0.1 mm 9 m/s 750 mmHg 86%
01:00 +24°C° 1.4 mm 10 m/s 749 mmHg 88%
02:00 +24°C° 1.4 mm 10 m/s 749 mmHg 89%
03:00 +24°C° 1.4 mm 11 m/s 749 mmHg 91%
04:00 +24°C° 2.6 mm 11 m/s 749 mmHg 90%
05:00 +24°C° 2.6 mm 11 m/s 749 mmHg 90%
06:00 +24°C° 2.6 mm 12 m/s 749 mmHg 90%
07:00 +24°C° 1.5 mm 12 m/s 750 mmHg 88%
08:00 +24°C° 1.5 mm 12 m/s 750 mmHg 85%
09:00 +26°C° 1.5 mm 11 m/s 750 mmHg 83%
10:00 +26°C° 1.3 mm 12 m/s 750 mmHg 85%
11:00 +24°C° 1.3 mm 13 m/s 750 mmHg 86%
12:00 +24°C° 1.3 mm 13 m/s 750 mmHg 88%
13:00 +24°C° 2.1 mm 13 m/s 750 mmHg 88%
14:00 +24°C° 2.1 mm 12 m/s 750 mmHg 89%
15:00 +24°C° 2.1 mm 11 m/s 750 mmHg 90%
16:00 +24°C° 1.8 mm 11 m/s 750 mmHg 90%
17:00 +24°C° 1.8 mm 11 m/s 751 mmHg 90%
18:00 +24°C° 1.8 mm 11 m/s 751 mmHg 91%
19:00 +24°C° 0.7 mm 10 m/s 751 mmHg 90%
20:00 +24°C° 0.7 mm 9 m/s 752 mmHg 90%
21:00 +24°C° 0.7 mm 8 m/s 752 mmHg 90%
22:00 +24°C° 0 mm 7 m/s 752 mmHg 91%
23:00 +24°C° 0 mm 7 m/s 752 mmHg 91%

7 Iulie, Marţi

Timp Temperatura Precipitaţii Vânt Presiune Umiditate
00:00 +24°C° 0 mm 6 m/s 752 mmHg 92%
01:00 +25°C° 0.6 mm 5 m/s 752 mmHg 92%
02:00 +25°C° 0.6 mm 4 m/s 752 mmHg 93%
03:00 +25°C° 0.6 mm 3 m/s 753 mmHg 94%
04:00 +25°C° 1.7 mm 2 m/s 753 mmHg 93%
05:00 +25°C° 1.7 mm 2 m/s 753 mmHg 92%
06:00 +25°C° 1.7 mm 2 m/s 753 mmHg 92%
07:00 +25°C° 0.2 mm 3 m/s 753 mmHg 91%
08:00 +25°C° 0.2 mm 3 m/s 754 mmHg 90%
09:00 +26°C° 0.2 mm 3 m/s 754 mmHg 89%
10:00 +26°C° 0.5 mm 3 m/s 754 mmHg 88%
11:00 +26°C° 0.5 mm 3 m/s 753 mmHg 87%
12:00 +27°C° 0.5 mm 3 m/s 753 mmHg 86%
13:00 +27°C° 0.5 mm 3 m/s 753 mmHg 85%
14:00 +27°C° 0.5 mm 3 m/s 753 mmHg 83%
15:00 +27°C° 0.5 mm 4 m/s 753 mmHg 82%
16:00 +27°C° 0.8 mm 4 m/s 753 mmHg 83%
17:00 +26°C° 0.8 mm 4 m/s 753 mmHg 85%
18:00 +26°C° 0.8 mm 4 m/s 753 mmHg 86%
19:00 +26°C° 0.2 mm 4 m/s 753 mmHg 85%
20:00 +26°C° 0.2 mm 4 m/s 753 mmHg 85%
21:00 +26°C° 0.2 mm 4 m/s 754 mmHg 84%
22:00 +26°C° 0.2 mm 4 m/s 753 mmHg 85%
23:00 +26°C° 0.2 mm 5 m/s 753 mmHg 85%
Arată mai mult